Detroit, MI

6:29 AM EST on February 10, 2016 (GMT -0500)
Detroit City

Weather History for KDET - March, 2014

Change the Weather History Date:

Tuesday, March 18, 2014

  Actual Average Record
Temperature  
Mean Temperature 34 °F -  
Max Temperature 46 °F 42 °F 75 °F (2012)
Min Temperature 25 °F 29 °F 10 °F (1967)
Degree Days  
Heating Degree Days 31    
Moisture  
Dew Point 23 °F    
Average Humidity 65    
Maximum Humidity 78    
Minimum Humidity 53    
Precipitation  
Precipitation 0.00 in - - ()
Sea Level Pressure  
Sea Level Pressure 30.02 in    
Wind  
Wind Speed 7 mph (East)    
Max Wind Speed 16 mph    
Max Gust Speed 26 mph    
Visibility 10 miles    
Events      
Averages and records for this station are not official NWS values.
T = Trace of Precipitation, MM = Missing Value Source: NWS Daily Summary

Daily Weather History Graph

Daily Weather History Graph

Search for Another Location

Airport or City:

Trip Planner

Search our weather history database for the weather conditions in past years. The results will help you decide how hot, cold, wet, or windy it might be!

Date:

Astronomy

Mar. 18, 2014 Rise Set
Actual Time 7:38 AM EDT 7:41 PM EDT
Civil Twilight 7:10 AM EDT 8:10 PM EDT
Nautical Twilight 6:38 AM EDT 8:42 PM EDT
Astronomical Twilight 6:04 AM EDT 9:16 PM EDT
Moon 10:01 PM EDT (3/18) 8:24 AM EDT (3/18)
Length of Visible Light 12h 59m
Length of Day
12h 03m
Waning Gibbous, 96% of the Moon is Illuminated
Mar 18
Waning Gibbous
Mar 23
Last Quarter
Mar 30
New
Apr 7
First Quarter
Apr 15
Full

Hourly Weather History & Observations

Time (EDT) Temp. Windchill Dew Point Humidity Pressure Visibility Wind Dir Wind Speed Gust Speed Precip Events Conditions
12:53 AM 26.1 °F 17.6 °F 16.0 °F 66% 30.01 in 10.0 mi East 8.1 mph - N/A   Overcast
1:53 AM 25.0 °F 19.3 °F 16.0 °F 69% 30.01 in 10.0 mi ENE 4.6 mph - N/A   Mostly Cloudy
2:53 AM 27.0 °F 18.7 °F 17.1 °F 66% 30.00 in 10.0 mi East 8.1 mph - N/A   Overcast
3:53 AM 26.1 °F 19.4 °F 18.0 °F 71% 30.01 in 10.0 mi East 5.8 mph - N/A   Overcast
4:53 AM 26.1 °F 20.5 °F 18.0 °F 71% 30.02 in 10.0 mi NE 4.6 mph - N/A   Overcast
5:53 AM 27.0 °F 20.5 °F 19.0 °F 72% 30.02 in 10.0 mi ESE 5.8 mph - N/A   Overcast
6:53 AM 25.0 °F 19.3 °F 19.0 °F 78% 30.03 in 10.0 mi East 4.6 mph - N/A   Clear
7:53 AM 25.0 °F - 19.0 °F 78% 30.04 in 10.0 mi Calm Calm - N/A   Clear
8:53 AM 28.0 °F 24.2 °F 21.0 °F 75% 30.04 in 10.0 mi East 3.5 mph - N/A   Unknown
9:53 AM 32.0 °F 26.4 °F 23.0 °F 69% 30.05 in 10.0 mi East 5.8 mph - N/A   Unknown
10:53 AM 36.0 °F 32.1 °F 23.0 °F 59% 30.06 in 10.0 mi ESE 4.6 mph - N/A   Clear
11:53 AM 37.9 °F 31.5 °F 24.1 °F 57% 30.06 in 10.0 mi ESE 9.2 mph - N/A   Clear
12:53 PM 39.9 °F 34.5 °F 26.1 °F 58% 30.06 in 10.0 mi ESE 8.1 mph - N/A   Clear
1:53 PM 42.1 °F 36.6 °F 27.0 °F 55% 30.06 in 10.0 mi East 9.2 mph - N/A   Clear
2:53 PM 43.0 °F 37.7 °F 27.0 °F 53% 30.05 in 10.0 mi SE 9.2 mph - N/A   Clear
3:53 PM 43.0 °F 37.7 °F 27.0 °F 53% 30.05 in 10.0 mi ESE 9.2 mph - N/A   Clear
4:53 PM 42.1 °F 37.1 °F 27.0 °F 55% 30.04 in 10.0 mi ESE 8.1 mph - N/A   Clear
5:53 PM 43.0 °F 37.2 °F 27.0 °F 53% 30.02 in 10.0 mi ENE 10.4 mph - N/A   Clear
6:53 PM 41.0 °F 33.9 °F 28.9 °F 62% 30.00 in 10.0 mi East 12.7 mph - N/A   Clear
7:53 PM 37.9 °F 30.5 °F 28.9 °F 70% 29.99 in 10.0 mi ESE 11.5 mph - N/A   Clear
8:53 PM 37.0 °F 30.4 °F 26.1 °F 65% 29.99 in 10.0 mi ESE 9.2 mph - N/A   Clear
9:53 PM 37.0 °F 29.8 °F 27.0 °F 67% 29.97 in 10.0 mi ESE 10.4 mph - N/A   Clear
10:53 PM 37.9 °F 28.9 °F 27.0 °F 65% 29.93 in 10.0 mi ESE 16.1 mph 26.5 mph N/A   Clear
11:53 PM 37.0 °F 29.3 °F 27.0 °F 67% 29.91 in 10.0 mi ESE 11.5 mph - N/A   Clear